CAPE
223 544 1071 1085 1184 1333 1490 1697 1877 1931 1807 1908 2038 1856 1604 1352 1144 1366 1431 1534 1523 1166 1217 998 977 958 443 158 239 270 291 430 518 508 720 685 668 641 399 99 131 0 121
397 413 872 1132 1111 1262 1432 1722 1844 1925 1832 1921 1967 1770 1532 1226 1207 1272 1400 1417 1212 1037 1045 692 520 400 519 722 755 689 274 198 132 126 226 304 312 303 283 172 557 83 152
523 422 609 1048 1138 1250 1531 1725 1794 1905 1894 1802 1745 1689 1400 1261 1053 1130 1194 1075 638 658 793 582 344 248 443 586 604 565 538 523 719 539 121 0 0 33 83 152 212 403 376
499 432 556 822 1192 1295 1426 1541 1607 1626 1499 1575 1536 1411 1372 1200 1023 1093 1039 773 477 198 375 424 256 238 323 287 378 233 118 71 129 242 0 0 0 47 52 52 249 562 306
488 375 809 894 1106 1233 1282 1366 1403 1415 1458 1508 1499 1166 1158 1090 872 741 877 700 214 13 161 316 206 224 185 135 118 144 21 0 0 0 0 0 0 121 175 107 62 310 421
539 403 721 750 960 1126 1247 1181 1134 1088 1098 1205 1331 1289 932 855 724 670 758 770 101 0 0 144 169 134 114 86 86 0 0 0 0 0 0 0 0 41 129 107 86 100 290
668 571 787 641 829 1106 1069 1070 982 924 959 1094 1236 1233 1023 845 701 599 784 894 421 77 39 2 24 39 83 50 0 0 0 0 4 4 105 135 23 29 214 206 318 255 206
803 621 676 798 886 831 845 634 578 701 832 896 954 1021 851 794 722 603 607 673 471 164 33 0 0 0 0 0 0 0 0 0 11 16 65 194 93 0 61 435 692 534 376
804 863 737 750 705 412 255 262 302 447 522 592 653 630 498 534 676 597 522 414 328 152 20 0 0 0 0 0 0 0 0 0 0 18 50 155 32 23 37 42 852 900 742
762 702 908 729 830 807 501 171 227 251 297 380 418 297 243 329 356 421 377 353 179 53 0 0 0 0 0 0 0 0 0 0 0 0 0 103 0 36 232 379 661 893 988
481 590 787 1036 893 926 884 566 266 330 320 303 325 96 140 150 138 105 22 189 242 118 38 8 0 0 0 0 0 0 0 0 0 0 0 0 0 45 204 744 1047 973 1150
507 687 815 626 598 888 614 865 800 612 573 430 324 291 139 200 84 0 0 8 84 104 85 49 29 0 0 0 0 0 0 0 0 0 0 0 0 2 138 734 936 1001 1113
379 326 480 449 602 630 762 707 469 539 418 396 320 303 253 133 69 0 0 1 17 49 10 2 17 5 0 0 0 0 0 0 0 0 0 0 0 0 0 479 837 1170 1190
96 182 327 361 437 705 602 600 495 338 335 174 215 289 258 83 82 56 4 1 6 31 244 318 238 453 617 464 432 442 464 488 187 98 21 0 0 0 0 18 565 860 1230
57 173 223 302 348 487 844 534 491 589 418 83 24 1 111 674 733 702 713 711 731 627 429 350 304 407 534 600 635 666 639 621 591 529 249 41 10 0 0 0 176 783 1056
260 114 226 417 566 550 384 347 129 8 6 0 0 0 0 0 1 216 561 405 270 391 780 832 880 980 944 786 694 835 939 924 826 780 661 443 123 66 40 24 44 275 924
440 488 249 210 361 285 290 84 22 33 27 52 1 0 0 0 2 1 0 1 0 21 95 259 561 767 863 729 701 798 808 655 544 471 572 641 564 233 166 108 40 102 222
405 546 603 419 335 292 255 83 136 125 56 4 15 5 22 71 5 3 12 4 0 0 0 0 2 41 151 279 457 728 689 726 724 734 727 752 711 736 501 229 177 102 44
357 477 652 702 604 461 281 199 169 121 228 163 180 25 14 15 24 14 14 22 24 17 1 2 10 4 13 0 0 5 40 266 657 653 959 926 916 857 832 449 197 144 108
357 513 722 779 819 695 549 416 383 250 182 103 44 161 47 52 33 3 2 0 0 0 0 0 0 0 0 0 0 0 0 0 0 88 520 254 91 200 289 213 198 246 139
77 242 678 593 559 507 310 233 122 39 106 10 10 46 15 4 0 0 0 0 0 0 0 0 0 0 0 0 0 0 0 0 0 1 0 0 21 0 2 0 0 0 0
0 21 35 109 299 238 65 97 77 63 31 18 13 1 0 0 0 0 0 0 0 0 0 0 0 0 0 0 0 0 0 0 0 0 0 0 0 0 0 0 0 0 0
0 0 0 0 14 41 10 18 16 13 1 0 0 0 0 0 0 0 0 0 0 0 0 0 0 0 0 0 0 0 0 0 0 0 0 0 0 0 0 0 0 0 0
0 0 0 0 0 0 0 0 0 0 0 0 0 0 0 0 0 0 0 0 0 0 0 0 0 0 0 0 0 0 0 0 0 0 0 0 0 0 0 0 0 0 0
0 0 0 0 0 0 0 0 0 0 0 0 0 0 0 0 0 0 0 0 0 0 0 0 0 0 0 0 0 0 0 0 0 0 0 0 0 0 0 0 0 0 0
0 0 0 0 0 0 0 0 0 0 0 0 0 0 0 0 0 0 0 0 0 0 0 0 0 0 0 0 0 0 0 0 0 0 0 0 0 0 0 0 0 0 0
CIN
-2 -20 -7 -0 -0 -0 -0 -0 -0 -0 -2 -0 -0 -0 -0 -0 -2 -0 -1 -0 -0 -1 -0 -0 -4 -2 -10 -40 -28 -17 -7 -1 -0 -0 -0 -0 -0 -0 -0 -71 -53 -0 -70
-6 -27 -27 -0 -0 -0 -0 -0 -0 -0 -0 -0 -0 -0 -0 -1 -0 -0 -0 -1 -0 -0 -0 -4 -5 -17 -4 -0 -0 -0 -15 -21 -44 -43 -31 -22 -14 -3 -0 -21 -19 -87 -61
-13 -30 -28 -13 -1 -0 -0 -0 -0 -0 -0 -0 -0 -0 -0 -0 -0 -0 -0 -0 -2 -3 -3 -8 -31 -50 -10 -0 -1 -1 -1 -1 -1 -13 -66 -0 -0 -83 -70 -43 -36 -15 -27
-16 -26 -16 -16 -0 -0 -0 -0 -0 -0 -1 -0 -0 -0 -0 -0 -0 -1 -0 -0 -2 -49 -28 -22 -44 -48 -26 -25 -14 -37 -73 -95 -82 -63 -0 -0 -0 -139 -135 -145 -41 -2 -20
-3 -13 -18 -6 -0 -0 -0 -6 -6 -2 -0 -0 -0 -0 -0 -1 -0 -2 -1 -0 -33 -35 -54 -27 -55 -64 -72 -91 -102 -86 -186 -0 -0 -0 -0 -0 -0 -91 -89 -99 -120 -23 -10
-2 -4 -28 -8 -0 -0 -0 -6 -16 -15 -4 -1 -0 -0 -0 -0 -0 -1 -2 -0 -64 -0 -1 -51 -65 -86 -97 -126 -115 -3 -0 -0 -0 -0 -0 -0 -0 -219 -119 -117 -112 -107 -39
-0 -3 -7 -9 -0 -0 -0 -0 -8 -11 -9 -2 -0 -0 -0 -0 -0 -2 -1 -0 -3 -77 -133 -16 -99 -113 -128 -161 -0 -0 -0 -0 -139 -148 -38 -45 -168 -223 -120 -108 -82 -83 -93
-4 -5 -10 -0 -0 -0 -1 -3 -8 -4 -2 -2 -1 -0 -0 -0 -2 -2 -0 -0 -7 -60 -136 -0 -0 -0 -0 -0 -0 -0 -0 -0 -60 -134 -54 -11 -85 -0 -221 -74 -28 -52 -82
-23 -6 -0 -0 -6 -15 -44 -37 -31 -21 -12 -4 -1 -1 -5 -1 -0 -0 -3 -20 -40 -62 -86 -0 -0 -0 -0 -0 -0 -0 -0 -0 -0 -132 -103 -15 -147 -208 -278 -228 -34 -25 -41
-35 -29 -2 -2 -0 -0 -2 -70 -52 -46 -32 -13 -4 -11 -28 -28 -29 -17 -21 -11 -48 -116 -0 -0 -0 -0 -0 -0 -0 -0 -0 -0 -0 -0 -0 -57 -0 -289 -148 -112 -75 -48 -38
-78 -41 -9 -0 -1 -0 -0 -14 -58 -36 -36 -39 -20 -89 -86 -18 -21 -42 -75 -46 -38 -87 -147 -131 -0 -0 -0 -0 -0 -0 -0 -0 -0 -0 -0 -0 -0 -246 -137 -70 -42 -50 -33
-60 -22 -7 -18 -19 -0 -11 -1 -2 -8 -4 -4 -3 -0 -12 -4 -45 -0 -0 -73 -120 -106 -123 -167 -218 -0 -0 -0 -0 -0 -0 -0 -0 -0 -0 -0 -0 -32 -133 -75 -68 -64 -54
-76 -102 -47 -45 -19 -8 -1 -3 -19 -11 -13 -6 -6 -2 -2 -19 -46 -0 -0 -7 -107 -104 -11 -15 -87 -16 -0 -0 -0 -0 -0 -0 -0 -0 -0 -0 -0 -0 -17 -85 -70 -50 -55
-215 -151 -68 -44 -29 -1 -0 -0 -3 -9 -7 -28 -16 -6 -6 -34 -29 -40 -5 -12 -67 -50 -2 -0 -1 -0 -0 -0 -1 -2 -2 -2 -44 -71 -49 -0 -0 -0 -0 -180 -81 -69 -56
-241 -153 -116 -55 -31 -6 -0 -0 -0 -0 -4 -94 -138 -9 -84 -0 -0 -0 -0 -0 -0 -0 -0 -0 -0 -0 -0 -0 -0 -0 -0 -0 -0 -0 -19 -116 -57 -0 -0 -0 -149 -63 -51
-68 -136 -117 -9 -0 -0 -9 -20 -97 -207 -228 -0 -0 -0 -0 -0 -34 -5 -0 -3 -11 -5 -0 -0 -0 -0 -0 -0 -0 -0 -0 -0 -0 -0 -0 -0 -56 -97 -111 -263 -212 -123 -64
-28 -18 -44 -37 -40 -41 -25 -78 -141 -175 -170 -118 -6 -0 -0 -0 -0 -0 -5 -5 -0 -57 -30 -12 -0 -0 -0 -0 -0 -0 -0 -0 -0 -0 -0 -0 -0 -4 -18 -51 -87 -200 -151
-36 -30 -12 -7 -9 -4 -45 -53 -30 -18 -70 -136 -84 -11 -72 -26 -41 -4 -8 -6 -0 -0 -1 -0 -0 -14 -4 -1 -1 -0 -0 -0 -0 -0 -0 -0 -0 -0 -1 -7 -30 -56 -96
-56 -34 -14 -0 -0 -0 -5 -19 -23 -22 -1 -9 -1 -23 -17 -7 -21 -13 -23 -15 -10 -10 -4 -1 -16 -19 -20 -0 -0 -23 -26 -1 -0 -0 -0 -0 -0 -0 -0 -2 -16 -54 -58
-49 -22 -5 -0 -0 -0 -0 -0 -0 -0 -0 -17 -12 -0 -0 -7 -13 -3 -6 -0 -0 -0 -0 -0 -0 -0 -0 -0 -0 -0 -0 -0 -0 -3 -0 -3 -15 -1 -2 -10 -19 -7 -17
-165 -62 -0 -0 -0 -0 -2 -4 -12 -34 -1 -13 -14 -1 -13 -9 -0 -0 -0 -0 -0 -0 -0 -0 -0 -0 -0 -0 -0 -0 -0 -0 -0 -0 -0 -0 -0 -0 -0 -0 -0 -0 -0
-0 -160 -148 -78 -29 -44 -85 -44 -32 -20 -37 -5 -4 -5 -0 -0 -0 -0 -0 -0 -0 -0 -0 -0 -0 -0 -0 -0 -0 -0 -0 -0 -0 -0 -0 -0 -0 -0 -0 -0 -0 -0 -0
-0 -0 -0 -0 -123 -135 -4 -1 -1 -1 -1 -0 -0 -0 -0 -0 -0 -0 -0 -0 -0 -0 -0 -0 -0 -0 -0 -0 -0 -0 -0 -0 -0 -0 -0 -0 -0 -0 -0 -0 -0 -0 -0
-0 -0 -0 -0 -0 -0 -0 -0 -0 -0 -0 -0 -0 -0 -0 -0 -0 -0 -0 -0 -0 -0 -0 -0 -0 -0 -0 -0 -0 -0 -0 -0 -0 -0 -0 -0 -0 -0 -0 -0 -0 -0 -0
-0 -0 -0 -0 -0 -0 -0 -0 -0 -0 -0 -0 -0 -0 -0 -0 -0 -0 -0 -0 -0 -0 -0 -0 -0 -0 -0 -0 -0 -0 -0 -0 -0 -0 -0 -0 -0 -0 -0 -0 -0 -0 -0
-0 -0 -0 -0 -0 -0 -0 -0 -0 -0 -0 -0 -0 -0 -0 -0 -0 -0 -0 -0 -0 -0 -0 -0 -0 -0 -0 -0 -0 -0 -0 -0 -0 -0 -0 -0 -0 -0 -0 -0 -0 -0 -0
Wind_Speed
16 11 13 11 9 9 9 10 8 4 6 7 9 9 10 10 11 11 13 12 10 10 16 16 7 22 20 18 15 14 16 17 17 15 13 13 13 13 12 nan 4 nan 10
13 13 13 11 10 9 8 8 8 5 6 6 6 7 8 8 7 7 8 9 9 7 7 3 1 1 18 13 13 13 14 13 14 11 9 10 13 12 9 7 13 nan 11
10 11 15 12 13 12 9 9 8 7 6 6 6 6 6 6 5 5 6 6 7 6 3 3 4 5 6 10 13 14 15 15 15 10 9 nan nan nan nan 5 9 8 11
7 10 10 11 11 13 11 8 8 9 8 8 8 6 3 3 1 3 3 5 4 3 4 6 7 7 7 8 8 11 13 nan 10 7 nan nan nan nan nan nan 8 8 10
9 7 4 8 10 12 11 7 8 9 10 9 9 7 4 1 1 2 1 1 2 nan 1 4 7 9 9 8 9 8 nan nan nan nan nan nan nan 12 8 7 nan 8 6
10 8 6 7 9 10 10 9 9 10 11 11 11 10 7 6 4 1 2 5 5 nan nan 3 5 6 6 nan nan nan nan nan nan nan nan nan nan nan 9 10 nan 9 9
13 8 11 9 8 9 10 9 8 8 8 8 9 10 10 8 5 3 1 5 5 nan nan nan nan nan nan nan nan nan nan nan nan nan 14 13 nan nan 9 10 11 11 11
11 12 13 11 10 9 9 9 9 7 6 6 6 6 6 6 7 7 4 3 4 3 nan nan nan nan nan nan nan nan nan nan nan nan nan 13 nan nan nan 11 13 13 13
9 10 10 13 12 12 12 12 10 9 7 6 5 4 4 6 6 6 6 6 6 6 nan nan nan nan nan nan nan nan nan nan nan nan nan 12 nan nan nan nan 14 17 17
7 4 8 9 12 12 13 11 11 9 8 6 4 3 4 6 5 7 9 6 5 nan nan nan nan nan nan nan nan nan nan nan nan nan nan 21 nan nan 16 14 15 18 18
8 9 8 8 8 9 10 8 10 8 8 10 11 nan 13 6 4 7 nan 3 4 5 nan nan nan nan nan nan nan nan nan nan nan nan nan nan nan nan 15 16 16 13 11
12 11 9 8 8 8 9 10 8 8 4 3 4 4 7 5 nan nan nan nan nan 4 nan nan nan nan nan nan nan nan nan nan nan nan nan nan nan nan 16 17 17 15 13
14 11 11 10 9 9 7 6 6 6 6 7 6 4 4 2 nan nan nan nan nan nan nan nan nan nan nan nan nan nan nan nan nan nan nan nan nan nan nan 16 16 15 16
nan 14 12 10 9 11 8 9 12 10 10 9 9 5 5 nan nan nan nan nan nan nan 7 6 8 10 8 9 10 12 13 14 16 nan nan nan nan nan nan nan 16 17 18
nan 15 14 15 13 13 12 12 13 13 14 nan nan nan 11 10 12 11 13 10 11 11 10 10 10 11 12 11 12 13 13 14 14 18 20 nan nan nan nan nan 15 16 17
18 21 21 19 18 18 20 19 18 nan nan nan nan nan nan nan nan 16 18 19 18 16 17 16 16 16 15 15 14 14 15 17 17 19 22 22 31 nan nan nan nan 20 22
24 26 27 26 27 27 25 nan nan nan nan nan nan nan nan nan nan nan nan nan nan nan nan 21 21 22 22 22 19 21 21 20 20 21 23 24 26 30 31 31 nan 27 26
30 30 30 29 29 28 25 nan 24 25 nan nan nan nan nan nan nan nan nan nan nan nan nan nan nan nan 26 27 26 26 27 27 27 29 30 31 33 33 36 36 35 34 nan
37 35 34 35 34 32 30 28 32 35 36 33 30 nan nan nan nan nan nan nan nan nan nan nan nan nan nan nan nan nan nan 30 31 34 34 36 38 39 43 44 45 42 39
42 39 39 38 37 34 32 33 34 36 36 33 nan 32 nan nan nan nan nan nan nan nan nan nan nan nan nan nan nan nan nan nan nan nan 41 44 nan 51 52 55 53 53 54
nan 43 40 39 36 33 33 39 37 nan 37 nan nan nan nan nan nan nan nan nan nan nan nan nan nan nan nan nan nan nan nan nan nan nan nan nan nan nan nan nan nan nan nan
nan nan nan 39 36 35 nan nan nan nan nan nan nan nan nan nan nan nan nan nan nan nan nan nan nan nan nan nan nan nan nan nan nan nan nan nan nan nan nan nan nan nan nan
nan nan nan nan nan nan nan nan nan nan nan nan nan nan nan nan nan nan nan nan nan nan nan nan nan nan nan nan nan nan nan nan nan nan nan nan nan nan nan nan nan nan nan
nan nan nan nan nan nan nan nan nan nan nan nan nan nan nan nan nan nan nan nan nan nan nan nan nan nan nan nan nan nan nan nan nan nan nan nan nan nan nan nan nan nan nan
nan nan nan nan nan nan nan nan nan nan nan nan nan nan nan nan nan nan nan nan nan nan nan nan nan nan nan nan nan nan nan nan nan nan nan nan nan nan nan nan nan nan nan
nan nan nan nan nan nan nan nan nan nan nan nan nan nan nan nan nan nan nan nan nan nan nan nan nan nan nan nan nan nan nan nan nan nan nan nan nan nan nan nan nan nan nan
Wind_Direction
34 1 31 41 83 93 110 121 130 102 64 59 45 56 54 45 46 48 59 64 43 102 175 191 200 222 218 223 225 226 227 217 225 229 231 237 234 224 219 nan 122 nan 271
6 10 39 47 56 66 68 88 94 77 50 44 53 53 56 61 59 59 68 73 59 63 41 44 196 244 225 206 214 221 234 230 235 228 238 238 211 213 216 185 200 nan 284
7 9 31 51 59 59 57 51 65 62 39 25 37 56 44 56 75 65 77 74 54 46 19 323 285 268 254 232 228 232 234 226 224 211 144 nan nan nan nan 241 247 259 288
0 26 23 49 63 64 67 53 42 41 27 24 17 19 36 44 91 110 72 96 90 32 8 317 309 303 289 266 250 240 233 nan 220 150 nan nan nan nan nan nan 257 251 259
24 27 0 53 58 64 66 61 48 41 38 39 36 18 11 338 205 166 64 233 163 nan 237 310 314 314 304 279 272 257 nan nan nan nan nan nan nan 266 260 257 nan 287 249
30 30 26 55 64 68 69 66 60 46 39 36 39 36 22 13 358 132 206 259 250 nan nan 236 277 281 271 nan nan nan nan nan nan nan nan nan nan nan 272 284 nan 234 251
32 28 31 55 63 70 65 61 58 63 58 45 36 40 37 34 32 22 273 279 268 nan nan nan nan nan nan nan nan nan nan nan nan nan 211 217 nan nan 287 301 291 289 283
14 30 34 43 57 61 63 58 52 49 49 52 56 48 38 40 31 33 36 350 314 292 nan nan nan nan nan nan nan nan nan nan nan nan nan 236 nan nan nan 295 290 294 301
9 9 27 38 42 55 54 48 45 41 40 37 34 50 43 24 25 22 11 6 11 14 nan nan nan nan nan nan nan nan nan nan nan nan nan 253 nan nan nan nan 300 308 311
344 354 19 33 36 39 41 58 49 40 37 44 58 65 58 35 31 1 15 340 3 nan nan nan nan nan nan nan nan nan nan nan nan nan nan 260 nan nan 296 308 310 317 322
319 337 351 6 20 36 35 20 33 40 51 45 31 nan 64 93 84 36 nan 317 349 350 nan nan nan nan nan nan nan nan nan nan nan nan nan nan nan nan 294 305 314 320 324
312 321 331 329 352 9 25 15 16 11 29 70 89 94 95 123 nan nan nan nan nan 12 nan nan nan nan nan nan nan nan nan nan nan nan nan nan nan nan 302 306 310 315 321
313 313 322 330 338 348 339 2 348 332 350 341 352 33 352 47 nan nan nan nan nan nan nan nan nan nan nan nan nan nan nan nan nan nan nan nan nan nan nan 307 307 302 300
nan 315 322 322 326 325 324 324 314 322 319 316 297 288 311 nan nan nan nan nan nan nan 239 252 240 238 239 246 252 257 264 270 277 nan nan nan nan nan nan nan 305 304 302
nan 297 298 301 306 311 320 309 302 290 281 nan nan nan 271 277 278 280 281 285 281 283 285 284 277 269 261 262 261 262 261 262 265 269 270 nan nan nan nan nan 296 291 291
292 293 295 300 302 288 268 271 282 nan nan nan nan nan nan nan nan 273 267 263 263 265 265 270 270 272 273 270 275 277 278 278 277 271 270 269 292 nan nan nan nan 289 292
286 283 273 273 274 274 278 nan nan nan nan nan nan nan nan nan nan nan nan nan nan nan nan 271 271 275 280 283 284 284 280 282 280 278 277 276 271 294 299 295 nan 289 286
282 279 276 276 273 273 275 nan 288 290 nan nan nan nan nan nan nan nan nan nan nan nan nan nan nan nan 280 282 280 282 284 288 289 286 286 283 279 274 282 294 290 286 nan
276 277 276 275 273 271 271 280 283 285 289 280 276 nan nan nan nan nan nan nan nan nan nan nan nan nan nan nan nan nan nan 287 284 282 284 282 279 278 275 271 278 281 281
274 274 274 275 274 272 273 283 288 287 289 278 nan 272 nan nan nan nan nan nan nan nan nan nan nan nan nan nan nan nan nan nan nan nan 279 276 nan 267 266 264 264 265 266
nan 272 273 273 278 279 283 288 290 nan 283 nan nan nan nan nan nan nan nan nan nan nan nan nan nan nan nan nan nan nan nan nan nan nan nan nan nan nan nan nan nan nan nan
nan nan nan 273 272 272 nan nan nan nan nan nan nan nan nan nan nan nan nan nan nan nan nan nan nan nan nan nan nan nan nan nan nan nan nan nan nan nan nan nan nan nan nan
nan nan nan nan nan nan nan nan nan nan nan nan nan nan nan nan nan nan nan nan nan nan nan nan nan nan nan nan nan nan nan nan nan nan nan nan nan nan nan nan nan nan nan
nan nan nan nan nan nan nan nan nan nan nan nan nan nan nan nan nan nan nan nan nan nan nan nan nan nan nan nan nan nan nan nan nan nan nan nan nan nan nan nan nan nan nan
nan nan nan nan nan nan nan nan nan nan nan nan nan nan nan nan nan nan nan nan nan nan nan nan nan nan nan nan nan nan nan nan nan nan nan nan nan nan nan nan nan nan nan
nan nan nan nan nan nan nan nan nan nan nan nan nan nan nan nan nan nan nan nan nan nan nan nan nan nan nan nan nan nan nan nan nan nan nan nan nan nan nan nan nan nan nan